Regional Weather Roundup
Issued by NWS Cleveland, OH

Home | Current Version | Previous Version | Text Only | Print | Product List | Glossary On
Versions: 1 2 3 4 5 6 7 8 9 10 11 12 13 14 15 16 17 18 19 20 21 22 23 24 25 26 27 28 29 30 31 32 33 34 35 36 37 38 39 40 41 42 43 44 45 46 47 48 49 50
000
ASUS41 KCLE 270512
RWRCLE
OHIO REGIONAL WEATHER ROUNDUP
NATIONAL WEATHER SERVICE WILMINGTON, OH
100 AM EDT FRI APR 27 2018

NOTE: "FAIR" INDICATES FEW OR NO CLOUDS BELOW 12,000 FEET WITH NO
SIGNIFICANT WEATHER AND/OR OBSTRUCTIONS TO VISIBILITY.

OHZ001>008-015>018-024>027-034-035-043-044-270600-
   NORTHWEST OHIO

CITY           SKY/WX    TMP DP  RH WIND       PRES   REMARKS
DEFIANCE       FAIR      48  37  65 CALM      29.83F
FINDLAY        FAIR      50  41  71 E3        29.82F
TOLEDO EXPRESS FAIR      44  40  85 CALM      29.82F
TOLEDO EXEC    FAIR      46  37  71 S6        29.83F
LIMA           FAIR      48  40  73 CALM      29.83S
$$

OHZ009>014-019>023-028>033-038-089-270600-
   NORTHEAST OHIO

CITY           SKY/WX    TMP DP  RH WIND       PRES   REMARKS
CLE-HOPKINS    FAIR      44  36  73 S9        29.86F
CLE-LAKEFRONT  FAIR      48  34  58 SE10      29.82F
CUY CO. ARPT   NOT AVBL
LORAIN-ELYRIA  FAIR      43  32  65 S5        29.84F
ASHTABULA      FAIR      41  34  76 SE3       29.85F
AKRON-CANTON   MOCLDY    46  37  71 NE7       29.84F
WOOSTER        FAIR      44  38  79 CALM      29.84F
MANSFIELD      FAIR      47  38  71 CALM      29.83F
YOUNGSTOWN     CLOUDY    46  36  68 E8        29.84F
$$

OHZ042-051>053-060>062-070>072-077>081-270600-
  SOUTHWEST OHIO

CITY           SKY/WX    TMP DP  RH WIND       PRES   REMARKS
CINC-COVINGTON FAIR      53  33  46 NW3       29.82F
CINC-LUNKEN    FAIR      47  43  86 CALM      29.83F
HAMILTON       FAIR      46  41  82 CALM      29.83F
DAYTON         FAIR      49  40  71 N5        29.83F
WRIGHT-PAT AFB CLEAR     49  43  80 CALM      29.81F
DAYTON GENERAL FAIR      52  37  56 NE6       29.81F
WILMINGTON     FAIR      51  41  68 CALM      29.81F
$$

OHZ036-037-039>041-045>050-054>059-063>069-073>076-082>088-270600-
  CENTRAL AND SOUTHEAST OHIO

CITY           SKY/WX    TMP DP  RH WIND       PRES   REMARKS
COLUMBUS       MOCLDY    56  42  59 E6        29.81F
OSU AIRPORT    MOCLDY    53  42  66 E3        29.81F
BOLTON FIELD   MOCLDY    53  44  69 CALM      29.82F
RICKENBACK AFB MOCLDY    53  46  76 NE7       29.81F
NEWARK         FAIR      51  47  86 CALM      29.82F
MARION         FAIR      46  39  76 E6        29.83F
LANCASTER      CLOUDY    54  47  77 CALM      29.82F
ZANESVILLE     CLOUDY    51  44  77 CALM      29.83S
NEW PHILLY     FAIR      49  43  80 CALM      29.84F
$$




USA.gov is the U.S. government's official web portal to all federal, state and local government web resources and services.